Blackwell, OK

9:55 AM CDT on May 28, 2017 (GMT -0500)
Blackwell

Weather History for KBKN - May, 2013

Change the Weather History Date:

Saturday, May 25, 2013

  Actual Average (KPNC) Record (KPNC)
Temperature  
Mean Temperature 71 °F -  
Max Temperature 80 °F 83 °F 98 °F (2006)
Min Temperature 62 °F 58 °F 45 °F (2001)
Cooling Degree Days 6    
Growing Degree Days 21 (Base 50)    
Moisture  
Dew Point 72 °F    
Average Humidity 100    
Maximum Humidity 100    
Minimum Humidity 100    
Precipitation  
Precipitation 0.00 in - - ()
Sea Level Pressure  
Sea Level Pressure 30.07 in    
Wind  
Wind Speed 12 mph (SSE)    
Max Wind Speed 21 mph    
Max Gust Speed 25 mph    
Visibility 10 miles    
Events      
Averages and records for this station are not official NWS values.
T = Trace of Precipitation, MM = Missing Value Source: NWS Daily Summary

Daily Weather History Graph

Daily Weather History Graph

Search for Another Location

Airport or City:

Trip Planner

Search our weather history database for the weather conditions in past years. The results will help you decide how hot, cold, wet, or windy it might be!

Date:

Astronomy

May. 25, 2013 Rise Set
Actual Time 6:14 AM CDT 8:38 PM CDT
Civil Twilight 5:45 AM CDT 9:07 PM CDT
Nautical Twilight 5:08 AM CDT 9:44 PM CDT
Astronomical Twilight 4:28 AM CDT 10:24 PM CDT
Moon 9:27 PM CDT (5/25) 6:42 AM CDT (5/25)
Length of Visible Light 15h 22m
Length of Day
14h 23m
Full, 100% of the Moon is Illuminated
May 25
Full
May 31
Last Quarter
Jun 8
New
Jun 16
First Quarter
Jun 23
Full

Hourly Weather History & Observations

Time (CDT) Temp. Heat Index Dew Point Humidity Pressure Visibility Wind Dir Wind Speed Gust Speed Precip Events Conditions
12:15 AM 68.0 °F - 68.0 °F 100% 30.08 in 10.0 mi SE 11.5 mph - N/A   Mostly Cloudy
12:35 AM 68.0 °F - 68.0 °F 100% 30.09 in 10.0 mi SE 11.5 mph - N/A   Mostly Cloudy
12:55 AM 66.2 °F - 66.2 °F 100% 30.09 in 10.0 mi SE 13.8 mph - N/A   Overcast
1:15 AM 66.2 °F - 66.2 °F 100% 30.10 in 10.0 mi SE 10.4 mph - N/A   Overcast
1:35 AM 66.2 °F - 66.2 °F 100% 30.11 in 10.0 mi SE 9.2 mph - N/A   Overcast
1:55 AM 66.2 °F - 66.2 °F 100% 30.11 in 10.0 mi SE 9.2 mph - N/A   Overcast
2:15 AM 66.2 °F - 66.2 °F 100% 30.11 in 10.0 mi SSE 9.2 mph - N/A   Overcast
2:35 AM 66.2 °F - 66.2 °F 100% 30.11 in 10.0 mi SSE 9.2 mph - N/A   Overcast
2:55 AM 66.2 °F - 66.2 °F 100% 30.10 in 9.0 mi SSE 11.5 mph - N/A   Overcast
3:15 AM 66.2 °F - 66.2 °F 100% 30.10 in 7.0 mi South 9.2 mph - N/A   Overcast
3:35 AM 66.2 °F - 66.2 °F 100% 30.10 in 7.0 mi South 9.2 mph - N/A   Overcast
3:55 AM 66.2 °F - 66.2 °F 100% 30.10 in 8.0 mi South 9.2 mph - N/A   Overcast
4:15 AM 66.2 °F - 66.2 °F 100% 30.10 in 10.0 mi South 9.2 mph - N/A   Overcast
4:35 AM 66.2 °F - 66.2 °F 100% 30.11 in 10.0 mi SSW 6.9 mph - N/A   Scattered Clouds
4:55 AM 64.4 °F - 64.4 °F 100% 30.10 in 10.0 mi South 6.9 mph - N/A   Clear
5:15 AM 62.6 °F - 62.6 °F 100% 30.10 in 10.0 mi Calm Calm - N/A   Clear
5:35 AM 62.6 °F - 62.6 °F 100% 30.11 in 10.0 mi East 4.6 mph - N/A   Clear
5:55 AM 62.6 °F - 62.6 °F 100% 30.11 in 10.0 mi SE 5.8 mph - N/A   Clear
6:15 AM 62.6 °F - 62.6 °F 100% 30.11 in 10.0 mi ESE 5.8 mph - N/A   Clear
6:35 AM 62.6 °F - 62.6 °F 100% 30.13 in 3.0 mi ESE 9.2 mph - N/A   Clear
6:55 AM 64.4 °F - 64.4 °F 100% 30.14 in 3.0 mi ESE 10.4 mph - N/A   Clear
7:15 AM 64.4 °F - 64.4 °F 100% 30.14 in 5.0 mi SE 6.9 mph - N/A   Clear
7:35 AM 64.4 °F - 64.4 °F 100% 30.14 in 9.0 mi SE 9.2 mph - N/A   Clear
7:55 AM 66.2 °F - 66.2 °F 100% 30.14 in 10.0 mi SE 9.2 mph - N/A   Clear
8:15 AM 68.0 °F - 68.0 °F 100% 30.13 in 10.0 mi SSE 13.8 mph 19.6 mph N/A   Clear
8:35 AM 68.0 °F - 68.0 °F 100% 30.13 in 10.0 mi SSE 17.3 mph 23.0 mph N/A   Clear
8:55 AM 68.0 °F - 68.0 °F 100% 30.13 in 10.0 mi SSE 13.8 mph 23.0 mph N/A   Clear
9:15 AM 71.6 °F - 71.6 °F 100% 30.13 in 10.0 mi SSE 13.8 mph - N/A   Clear
9:35 AM 71.6 °F - 71.6 °F 100% 30.12 in 10.0 mi SSE 13.8 mph 19.6 mph N/A   Clear
9:55 AM 71.6 °F - 71.6 °F 100% 30.12 in 10.0 mi SSE 17.3 mph 24.2 mph N/A   Clear
10:15 AM 73.4 °F - 73.4 °F 100% 30.12 in 10.0 mi SSE 15.0 mph 18.4 mph N/A   Partly Cloudy
10:35 AM 73.4 °F - 73.4 °F 100% 30.11 in 10.0 mi South 13.8 mph 17.3 mph N/A   Partly Cloudy
10:55 AM 73.4 °F - 73.4 °F 100% 30.11 in 10.0 mi South 16.1 mph 23.0 mph N/A   Partly Cloudy
11:15 AM 75.2 °F - 75.2 °F 100% 30.11 in 10.0 mi South 16.1 mph 21.9 mph N/A   Scattered Clouds
11:35 AM 75.2 °F - 75.2 °F 100% 30.11 in 10.0 mi South 15.0 mph 24.2 mph N/A   Scattered Clouds
11:55 AM 75.2 °F - 75.2 °F 100% 30.12 in 10.0 mi South 15.0 mph 21.9 mph N/A   Mostly Cloudy
12:15 PM 75.2 °F - 75.2 °F 100% 30.11 in 10.0 mi South 16.1 mph 23.0 mph N/A   Mostly Cloudy
12:35 PM 75.2 °F - 75.2 °F 100% 30.11 in 10.0 mi South 19.6 mph 24.2 mph N/A   Mostly Cloudy
12:55 PM 77.0 °F - 77.0 °F 100% 30.11 in 10.0 mi South 15.0 mph 23.0 mph N/A   Mostly Cloudy
1:15 PM 77.0 °F - 77.0 °F 100% 30.10 in 10.0 mi SSE 16.1 mph 24.2 mph N/A   Mostly Cloudy
1:35 PM 77.0 °F - 77.0 °F 100% 30.09 in 10.0 mi South 17.3 mph 24.2 mph N/A   Mostly Cloudy
1:55 PM 77.0 °F - 77.0 °F 100% 30.09 in 10.0 mi South 15.0 mph 25.3 mph N/A   Mostly Cloudy
2:15 PM 80.6 °F 89.3 °F 80.6 °F 100% 30.08 in 10.0 mi South 17.3 mph 25.3 mph N/A   Scattered Clouds
2:35 PM 78.8 °F - 78.8 °F 100% 30.07 in 10.0 mi SSE 16.1 mph 19.6 mph N/A   Mostly Cloudy
2:55 PM 80.6 °F 89.3 °F 80.6 °F 100% 30.07 in 10.0 mi South 15.0 mph 20.7 mph N/A   Scattered Clouds
3:15 PM 80.6 °F 89.3 °F 80.6 °F 100% 30.06 in 10.0 mi South 15.0 mph 21.9 mph N/A   Mostly Cloudy
3:35 PM 80.6 °F 89.3 °F 80.6 °F 100% 30.05 in 10.0 mi South 16.1 mph 23.0 mph N/A   Mostly Cloudy
3:55 PM 80.6 °F 89.3 °F 80.6 °F 100% 30.05 in 10.0 mi South 17.3 mph 21.9 mph N/A   Mostly Cloudy
4:15 PM 80.6 °F 89.3 °F 80.6 °F 100% 30.05 in 10.0 mi South 16.1 mph 20.7 mph N/A   Scattered Clouds
4:35 PM 80.6 °F 89.3 °F 80.6 °F 100% 30.04 in 10.0 mi SSE 15.0 mph 21.9 mph N/A   Mostly Cloudy
4:55 PM 80.6 °F 89.3 °F 80.6 °F 100% 30.03 in 10.0 mi SSE 16.1 mph 20.7 mph N/A   Mostly Cloudy
5:15 PM 80.6 °F 89.3 °F 80.6 °F 100% 30.02 in 10.0 mi South 15.0 mph 23.0 mph N/A   Scattered Clouds
5:35 PM 80.6 °F 89.3 °F 80.6 °F 100% 30.02 in 10.0 mi South 16.1 mph 21.9 mph N/A   Partly Cloudy
5:55 PM 80.6 °F 89.3 °F 80.6 °F 100% 30.01 in 10.0 mi SSE 15.0 mph 25.3 mph N/A   Mostly Cloudy
6:15 PM 77.0 °F - 77.0 °F 100% 30.00 in 10.0 mi South 13.8 mph 24.2 mph N/A   Scattered Clouds
6:35 PM 78.8 °F - 78.8 °F 100% 29.99 in 10.0 mi South 20.7 mph 25.3 mph N/A   Partly Cloudy
6:55 PM 77.0 °F - 77.0 °F 100% 29.98 in 10.0 mi SSE 16.1 mph 24.2 mph N/A   Partly Cloudy
7:15 PM 77.0 °F - 77.0 °F 100% 29.98 in 10.0 mi South 15.0 mph 25.3 mph N/A   Clear
7:35 PM 77.0 °F - 77.0 °F 100% 29.97 in 10.0 mi South 16.1 mph 20.7 mph N/A   Clear
7:55 PM 75.2 °F - 75.2 °F 100% 29.98 in 10.0 mi South 13.8 mph 19.6 mph N/A   Clear
8:15 PM 75.2 °F - 75.2 °F 100% 29.98 in 10.0 mi SSE 15.0 mph 20.7 mph N/A   Clear
8:35 PM 73.4 °F - 73.4 °F 100% 29.98 in 10.0 mi SSE 15.0 mph 25.3 mph N/A   Clear
8:55 PM 73.4 °F - 73.4 °F 100% 29.97 in 10.0 mi South 15.0 mph 20.7 mph N/A   Clear
9:15 PM 71.6 °F - 71.6 °F 100% 29.97 in 10.0 mi SSE 9.2 mph - N/A   Partly Cloudy
9:35 PM 71.6 °F - 71.6 °F 100% 29.99 in 10.0 mi SSE 8.1 mph - N/A   Scattered Clouds
9:55 PM 71.6 °F - 71.6 °F 100% 30.00 in 10.0 mi SSE 9.2 mph - N/A   Clear
10:15 PM 69.8 °F - 69.8 °F 100% 30.01 in 10.0 mi SSE 10.4 mph - N/A   Clear
10:35 PM 69.8 °F - 69.8 °F 100% 30.02 in 10.0 mi South 11.5 mph - N/A   Clear
10:55 PM 68.0 °F - 68.0 °F 100% 30.03 in 10.0 mi South 11.5 mph - N/A   Mostly Cloudy
11:15 PM 68.0 °F - 68.0 °F 100% 30.03 in 10.0 mi SSE 8.1 mph - N/A   Overcast
11:35 PM 66.2 °F - 66.2 °F 100% 30.02 in 10.0 mi SSE 10.4 mph - N/A   Mostly Cloudy
11:55 PM 68.0 °F - 68.0 °F 100% 30.01 in 10.0 mi SSE 12.7 mph 17.3 mph N/A   Mostly Cloudy